User: anonymous   Login
Location: Hale Hill Observatory
(39.3806°N, 86.8431°W)
Time: 18:14:58
(UTC-04:00)
Language:

Cosmos 990 Rocket - Orbit

View from above orbital plane
View from above orbital plane
View from above satellite
View from above satellite

Ground track
Ground track

The orbit data is extracted from the following two-line orbital elements,

1 10677U 78019B   16179.58605238 -.00000004  00000-0  70349-5 0  9990
2 10677  74.0375 236.5379 0014681  33.9439 326.2652 14.39966917 11457
Epoch (UTC): 27 June 2016 14:03:54
Eccentricity: 0.0014681
inclination: 74.0375°
perigee height: 748 km
apogee height: 769 km
right ascension of ascending node: 236.5379°
argument of perigee: 33.9439°
revolutions per day: 14.39966917
mean anomaly at epoch: 326.2652°
orbit number at epoch: 1145

The dashed part of the orbit path shows where the satellite is in the earth's shadow,  

DLR